Location: Dos Palmas
(32.4468°N, 116.8732°W)
Time: 22:34:49
(UTC+00:00)

ADEOS Rocket - Pass Details

Date: 20 June 2021
Orbit: 858 x 1307 km, 98.7° (Epoch: 01 August)

Event Time Altitude Azimuth Distance (km) Brightness Sun altitude
Exits shadow 09:40:14 20° 140° (SE) 2,502 4.9 -28.1°
Maximum altitude 09:45:14 52° 73° (ENE) 1,441 4.0 -27.6°
Drops below altitude 10° 09:51:49 10° 359° (N) 2,973 6.2 -26.9°
Sets 09:54:19 0° 354° (N) 3,871 6.9 -26.6°
